Weather History for Palacios, TX

Change the Weather History Date:

Friday, January 4, 2013

  Actual Average Record
Temperature  
Mean Temperature 48 °F -  
Max Temperature 52 °F 60 °F 79 °F (2006)
Min Temperature 43 °F 40 °F 23 °F (1959)
Degree Days  
Heating Degree Days 18    
Moisture  
Dew Point 36 °F    
Average Humidity 62    
Maximum Humidity 80    
Minimum Humidity 49    
Precipitation  
Precipitation 0.00 in - - ()
Sea Level Pressure  
Sea Level Pressure 30.39 in    
Wind  
Wind Speed 11 mph (NNE)    
Max Wind Speed 17 mph    
Max Gust Speed 23 mph    
Visibility 10 miles    
Events      
Averages and records for this station are not official NWS values.
T = Trace of Precipitation, MM = Missing Value Source: NWS Daily Summary

Daily Weather History Graph

Daily Weather History Graph

Search for Another Location

Airport:

Trip Planner

Search our weather history database for the weather conditions in past years. The results will help you decide how hot, cold, wet, or windy it might be!

Date:

Astronomy

Jan. 04, 2013 Rise Set
Actual Time 7:18 AM CST 5:41 PM CST
Civil Twilight 6:52 AM CST 6:07 PM CST
Nautical Twilight 6:23 AM CST 6:36 PM CST
Astronomical Twilight 5:54 AM CST 7:05 PM CST
Moon No Moon Rise 11:39 AM CST (1/4)
Length of Visible Light 11h 14m
Length of Day
10h 22m
Waning Gibbous, 55% of the Moon is Illuminated
Jan 4
Waning Gibbous
Jan 4
Last Quarter
Jan 11
New
Jan 18
First Quarter
Jan 26
Full

Hourly Weather History & Observations

Time (CST) Temp. Windchill Dew Point Humidity Pressure Visibility Wind Dir Wind Speed Gust Speed Precip Events Conditions
12:53 AM 43.0 °F 38.2 °F 37.0 °F 80% 30.35 in 10.0 mi North 8.1 mph - N/A   Clear
1:53 AM 45.0 °F 41.2 °F 37.9 °F 76% 30.37 in 10.0 mi North 6.9 mph - N/A   Overcast
2:53 AM 46.9 °F - 37.9 °F 71% 30.37 in 10.0 mi North 9.2 mph - N/A   Overcast
3:53 AM 46.9 °F - 37.9 °F 71% 30.38 in 10.0 mi North 9.2 mph - N/A   Overcast
4:53 AM 48.0 °F - 37.9 °F 68% 30.40 in 10.0 mi North 9.2 mph - N/A   Overcast
5:53 AM 48.0 °F - 37.9 °F 68% 30.41 in 10.0 mi North 12.7 mph - N/A   Overcast
6:53 AM 48.0 °F - 37.9 °F 68% 30.42 in 10.0 mi North 12.7 mph - N/A   Overcast
7:53 AM 48.0 °F - 37.0 °F 66% 30.44 in 10.0 mi NNE 10.4 mph - N/A   Overcast
8:53 AM 48.9 °F - 37.9 °F 66% 30.46 in 10.0 mi NNE 13.8 mph - N/A   Overcast
9:53 AM 50.0 °F - 36.0 °F 59% 30.47 in 10.0 mi NNE 15.0 mph - N/A   Overcast
10:53 AM 50.0 °F - 36.0 °F 59% 30.46 in 10.0 mi NE 16.1 mph 23.0 mph N/A   Overcast
11:53 AM 51.1 °F - 35.1 °F 54% 30.43 in 10.0 mi NE 17.3 mph - N/A   Overcast
12:53 PM 51.1 °F - 34.0 °F 52% 30.40 in 10.0 mi NE 17.3 mph - N/A   Overcast
1:53 PM 52.0 °F - 35.1 °F 53% 30.36 in 10.0 mi NE 13.8 mph - N/A   Overcast
2:53 PM 52.0 °F - 33.1 °F 49% 30.35 in 10.0 mi NE 13.8 mph - N/A   Overcast
3:53 PM 52.0 °F - 33.1 °F 49% 30.36 in 10.0 mi NNE 12.7 mph - N/A   Overcast
4:53 PM 51.8 °F - 33.8 °F 50% 30.36 in 10.0 mi NNE 12.7 mph - N/A   Overcast
5:53 PM 51.1 °F - 34.0 °F 52% 30.35 in 10.0 mi NNE 11.5 mph - N/A   Overcast
6:53 PM 50.0 °F - 37.0 °F 61% 30.38 in 10.0 mi North 8.1 mph - N/A   Overcast
7:53 PM 50.0 °F - 36.0 °F 59% 30.37 in 10.0 mi NNE 11.5 mph - N/A   Overcast
8:53 PM 50.0 °F - 37.0 °F 61% 30.37 in 10.0 mi NNE 8.1 mph - 0.00 in   Overcast
9:53 PM 50.0 °F - 37.0 °F 61% 30.38 in 10.0 mi North 4.6 mph - N/A   Overcast
10:53 PM 48.9 °F - 37.9 °F 66% 30.37 in 10.0 mi North 9.2 mph - N/A   Overcast
11:53 PM 48.9 °F - 37.9 °F 66% 30.37 in 10.0 mi North 8.1 mph - N/A   Overcast